Visibility
15.0 15.0 15.0 15.0 15.0 15.0 15.0 15.0 15.0 15.0 15.0 15.0 0.4 1.4 15.0 15.0 15.0 15.0 15.0 15.0 7.7 2.3 0.3 0.1 1.2 0.1 0.1 14.7 0.0 0.0 15.0 15.0 0.2 9.1 15.0 15.0 15.0 15.0 15.0 15.0 15.0 15.0 15.0 15.0
15.0 15.0 15.0 15.0 15.0 15.0 9.9 12.5 15.0 15.0 15.0 3.0 9.7 15.0 15.0 15.0 15.0 15.0 15.0 15.0 10.4 14.1 3.4 0.2 3.0 10.1 15.0 15.0 0.0 0.0 12.1 12.1 13.5 0.2 11.8 14.7 15.0 15.0 15.0 15.0 15.0 15.0 15.0 15.0
15.0 15.0 15.0 15.0 15.0 15.0 15.0 12.7 8.4 15.0 15.0 15.0 11.2 1.7 15.0 13.4 15.0 15.0 15.0 15.0 15.0 15.0 15.0 15.0 15.0 8.8 15.0 15.0 0.0 0.1 0.4 12.0 15.0 15.0 13.4 15.0 15.0 15.0 15.0 15.0 15.0 15.0 15.0 15.0
15.0 15.0 15.0 15.0 15.0 15.0 15.0 11.7 4.6 6.6 2.1 4.0 6.1 12.4 2.9 3.1 5.8 15.0 15.0 15.0 12.9 0.2 1.0 15.0 15.0 15.0 15.0 15.0 14.3 0.0 0.0 8.2 15.0 15.0 15.0 15.0 15.0 15.0 15.0 15.0 15.0 15.0 15.0 15.0
15.0 15.0 15.0 15.0 15.0 15.0 15.0 0.2 4.2 15.0 0.3 2.1 15.0 12.9 12.4 1.5 11.2 7.1 14.8 1.8 11.9 13.4 0.5 0.6 0.3 0.8 14.8 8.9 14.1 0.2 0.1 0.0 14.9 15.0 15.0 15.0 15.0 15.0 15.0 15.0 15.0 15.0 15.0 15.0
15.0 15.0 15.0 15.0 15.0 15.0 15.0 15.0 15.0 15.0 2.5 1.9 12.5 0.6 1.3 13.3 15.0 14.5 15.0 15.0 7.8 12.9 5.1 6.7 12.8 2.5 2.0 7.0 0.2 0.2 0.2 0.1 0.1 5.6 15.0 15.0 15.0 15.0 15.0 15.0 15.0 15.0 15.0 15.0
15.0 15.0 15.0 15.0 15.0 15.0 15.0 15.0 15.0 15.0 4.2 1.5 2.7 4.8 9.8 9.7 15.0 5.9 15.0 15.0 9.3 15.0 15.0 15.0 15.0 4.4 0.2 2.2 4.5 12.1 0.7 0.6 0.1 0.3 2.3 0.2 15.0 15.0 15.0 15.0 0.2 7.7 11.1 12.8
15.0 15.0 15.0 15.0 15.0 15.0 15.0 15.0 15.0 12.2 12.7 13.7 15.0 15.0 1.7 14.8 15.0 15.0 15.0 15.0 15.0 15.0 15.0 5.2 15.0 5.6 12.9 1.9 11.0 8.1 14.8 0.2 0.1 0.1 0.1 0.4 11.3 3.0 0.3 2.0 0.1 12.9 1.7 15.0
15.0 15.0 15.0 15.0 15.0 15.0 15.0 15.0 15.0 15.0 1.6 15.0 11.9 11.4 1.3 1.7 3.4 13.5 15.0 15.0 15.0 15.0 15.0 9.1 1.7 0.2 0.3 0.1 0.1 0.8 12.1 0.1 0.2 0.2 0.1 0.1 0.6 15.0 15.0 14.5 0.2 15.0 11.8 11.6
15.0 15.0 15.0 15.0 15.0 15.0 15.0 15.0 15.0 15.0 15.0 15.0 15.0 1.8 0.2 1.2 1.6 1.3 15.0 15.0 13.3 15.0 11.8 8.0 0.4 5.7 4.8 0.2 0.4 0.3 0.1 0.7 0.4 0.2 0.1 0.1 1.2 15.0 15.0 0.9 0.8 12.3 9.1 4.4
15.0 15.0 15.0 15.0 15.0 15.0 15.0 15.0 15.0 15.0 15.0 15.0 12.1 15.0 0.9 0.2 8.8 13.4 15.0 15.0 15.0 15.0 8.4 2.2 2.6 3.3 7.4 0.5 0.2 0.4 0.2 0.1 0.2 0.4 0.1 0.1 3.5 14.9 7.6 1.6 14.4 1.1 11.7 15.0
15.0 15.0 15.0 15.0 15.0 15.0 15.0 15.0 15.0 15.0 15.0 15.0 15.0 15.0 0.0 13.8 15.0 15.0 13.3 15.0 15.0 0.6 13.5 4.4 2.4 0.8 5.5 1.7 0.6 10.5 0.9 0.3 0.2 0.3 0.3 0.6 0.1 0.1 0.1 0.1 0.2 9.4 0.4 15.0
15.0 15.0 15.0 15.0 15.0 15.0 15.0 15.0 15.0 15.0 15.0 15.0 15.0 2.4 0.6 15.0 15.0 15.0 15.0 15.0 9.6 7.4 15.0 2.1 0.2 0.2 0.5 3.1 3.1 15.0 12.7 15.0 2.5 6.8 1.0 9.4 15.0 0.1 3.7 15.0 15.0 15.0 3.0 0.5
15.0 15.0 15.0 15.0 15.0 15.0 15.0 15.0 15.0 15.0 14.7 15.0 15.0 15.0 15.0 15.0 15.0 15.0 15.0 15.0 15.0 11.1 3.8 0.5 0.2 0.2 1.3 0.5 13.2 15.0 15.0 15.0 15.0 15.0 15.0 15.0 0.5 8.0 15.0 15.0 15.0 15.0 15.0 1.8
15.0 15.0 15.0 15.0 15.0 15.0 15.0 15.0 15.0 15.0 15.0 15.0 14.6 15.0 15.0 15.0 15.0 15.0 15.0 15.0 15.0 0.5 0.1 0.3 0.4 0.6 0.5 3.9 15.0 7.0 13.5 15.0 15.0 15.0 15.0 13.1 15.0 15.0 15.0 15.0 15.0 15.0 7.5 4.8
15.0 15.0 15.0 15.0 15.0 15.0 15.0 15.0 15.0 15.0 15.0 5.6 7.3 15.0 15.0 15.0 15.0 15.0 15.0 15.0 0.3 0.3 0.3 0.9 1.3 14.0 4.3 3.2 6.1 15.0 15.0 15.0 15.0 3.2 15.0 14.8 14.7 15.0 15.0 15.0 15.0 15.0 2.6 11.8
15.0 15.0 15.0 15.0 15.0 15.0 15.0 15.0 15.0 15.0 15.0 13.9 15.0 15.0 15.0 15.0 15.0 15.0 15.0 15.0 3.6 1.6 1.9 2.1 11.6 15.0 15.0 15.0 15.0 15.0 15.0 15.0 15.0 15.0 8.3 11.3 15.0 15.0 15.0 15.0 15.0 15.0 15.0 15.0
15.0 15.0 15.0 15.0 15.0 15.0 15.0 15.0 15.0 15.0 15.0 15.0 15.0 15.0 15.0 15.0 15.0 15.0 15.0 15.0 15.0 3.0 4.2 13.8 15.0 15.0 15.0 15.0 15.0 15.0 15.0 15.0 15.0 15.0 15.0 8.7 15.0 15.0 15.0 15.0 15.0 6.3 12.9 15.0
15.0 15.0 15.0 15.0 15.0 15.0 15.0 15.0 15.0 15.0 15.0 15.0 15.0 15.0 15.0 15.0 15.0 15.0 15.0 13.0 2.5 2.2 6.4 15.0 15.0 15.0 15.0 15.0 15.0 7.2 15.0 3.1 2.7 2.8 14.9 15.0 15.0 15.0 15.0 15.0 15.0 3.1 8.0 13.3
15.0 15.0 15.0 15.0 15.0 15.0 15.0 15.0 15.0 15.0 15.0 15.0 15.0 15.0 15.0 15.0 15.0 15.0 15.0 15.0 2.2 1.7 1.6 15.0 15.0 15.0 15.0 15.0 15.0 15.0 15.0 10.9 1.8 1.0 6.2 2.1 14.3 14.2 8.8 4.4 11.3 2.7 1.0 1.7
15.0 15.0 15.0 15.0 15.0 15.0 15.0 15.0 15.0 15.0 15.0 15.0 15.0 15.0 15.0 15.0 15.0 12.5 11.1 2.6 2.6 3.5 8.9 15.0 15.0 15.0 15.0 15.0 13.2 15.0 15.0 9.3 3.6 1.0 1.3 1.0 0.3 0.3 0.6 2.1 6.5 3.4 2.0 2.2
15.0 4.6 9.1 15.0 15.0 15.0 15.0 15.0 15.0 15.0 15.0 15.0 15.0 15.0 15.0 13.5 15.0 4.1 7.5 3.4 2.8 5.3 15.0 15.0 15.0 15.0 15.0 15.0 15.0 15.0 8.8 4.6 8.3 11.6 2.7 3.4 1.7 0.5 0.4 0.9 1.3 1.1 1.0 0.7
3.8 15.0 15.0 15.0 15.0 15.0 15.0 15.0 15.0 15.0 15.0 13.7 15.0 15.0 15.0 8.8 15.0 5.6 4.8 2.4 5.2 15.0 7.4 11.6 15.0 15.0 15.0 13.1 5.0 7.1 15.0 5.2 4.1 13.9 14.1 10.7 12.9 14.2 0.5 0.4 5.8 1.2 0.2 0.2
0.1 5.2 2.9 15.0 15.0 15.0 15.0 15.0 15.0 15.0 15.0 15.0 15.0 15.0 15.0 15.0 11.7 1.9 4.9 14.7 14.8 13.9 4.0 15.0 15.0 15.0 15.0 15.0 6.3 2.5 4.1 4.1 3.7 6.2 4.4 4.3 4.3 4.1 2.0 0.8 1.1 0.2 0.1 0.1
0.1 9.6 13.6 15.0 15.0 15.0 15.0 15.0 15.0 15.0 15.0 15.0 15.0 15.0 15.0 12.8 12.1 2.4 3.0 4.5 5.4 15.0 15.0 15.0 15.0 15.0 15.0 4.6 4.2 4.0 3.3 3.0 2.9 2.7 2.2 3.2 3.7 4.2 9.0 1.0 0.6 0.2 0.1 0.1
0.1 0.1 15.0 15.0 15.0 15.0 15.0 11.7 2.2 11.0 11.5 6.6 13.6 15.0 13.8 15.0 15.0 8.4 8.1 15.0 15.0 15.0 15.0 15.0 15.0 15.0 11.1 15.0 15.0 13.5 3.8 1.9 2.2 1.7 2.0 2.3 2.6 2.1 1.7 0.6 0.3 0.2 0.1 0.1
0.1 7.6 15.0 15.0 15.0 15.0 15.0 15.0 4.4 2.3 0.3 0.1 0.2 0.3 15.0 2.1 10.5 4.7 15.0 15.0 15.0 15.0 15.0 15.0 15.0 15.0 15.0 15.0 14.4 15.0 4.0 2.8 2.7 2.8 3.8 2.7 1.7 2.4 1.3 1.3 0.2 0.1 0.1 0.1